• In Hungary
  • List of Countries
  • For 7 days
  • Water Temperature
  • Satellite Maps
  • Weather Map
  • News
  • Weather Widgets
  • user-avatar
    Login

    Hourly Weather Kochergino

    Today, 17 August, Friday

    Time Temperature Precipitation Wind Pressure Humidity
    00:00 +13°C° 0 mm 1 mps 744 mmHg 93%
    01:00 +12°C° 0 mm 1 mps 744 mmHg 94%
    02:00 +12°C° 0 mm 1 mps 744 mmHg 96%
    03:00 +12°C° 0 mm 1 mps 744 mmHg 96%
    04:00 +12°C° 0 mm 1 mps 745 mmHg 96%
    05:00 +12°C° 0 mm 1 mps 745 mmHg 96%
    06:00 +14°C° 0 mm 1 mps 745 mmHg 88%
    07:00 +16°C° 0 mm 1 mps 745 mmHg 80%
    08:00 +18°C° 0 mm 2 mps 745 mmHg 72%
    09:00 +19°C° 0 mm 2 mps 745 mmHg 65%
    10:00 +21°C° 0 mm 2 mps 745 mmHg 59%
    11:00 +23°C° 0 mm 2 mps 745 mmHg 52%
    12:00 +24°C° 0 mm 2 mps 745 mmHg 51%
    13:00 +24°C° 0 mm 2 mps 745 mmHg 49%
    14:00 +25°C° 0 mm 2 mps 745 mmHg 47%
    15:00 +25°C° 0 mm 2 mps 745 mmHg 51%
    16:00 +24°C° 0 mm 2 mps 744 mmHg 54%
    17:00 +24°C° 0 mm 2 mps 744 mmHg 58%
    18:00 +21°C° 0 mm 2 mps 744 mmHg 65%
    19:00 +19°C° 0 mm 2 mps 744 mmHg 72%
    20:00 +16°C° 0 mm 2 mps 744 mmHg 80%
    21:00 +16°C° 0 mm 2 mps 744 mmHg 82%
    22:00 +15°C° 0 mm 2 mps 744 mmHg 84%
    23:00 +14°C° 0 mm 2 mps 744 mmHg 85%

    Tomorrow, 18 August, Saturday

    Time Temperature Precipitation Wind Pressure Humidity
    00:00 +14°C° 0 mm 2 mps 744 mmHg 86%
    01:00 +13°C° 0 mm 2 mps 744 mmHg 88%
    02:00 +13°C° 0 mm 2 mps 744 mmHg 89%
    03:00 +13°C° 0 mm 2 mps 744 mmHg 89%
    04:00 +13°C° 0 mm 2 mps 744 mmHg 90%
    05:00 +13°C° 0 mm 2 mps 744 mmHg 91%
    06:00 +15°C° 0 mm 2 mps 744 mmHg 84%
    07:00 +17°C° 0 mm 2 mps 744 mmHg 77%
    08:00 +19°C° 0 mm 2 mps 745 mmHg 69%
    09:00 +20°C° 0 mm 2 mps 745 mmHg 63%
    10:00 +23°C° 0 mm 2 mps 744 mmHg 57%
    11:00 +24°C° 0 mm 3 mps 744 mmHg 51%
    12:00 +25°C° 0 mm 3 mps 744 mmHg 49%
    13:00 +26°C° 0 mm 3 mps 744 mmHg 48%
    14:00 +26°C° 0 mm 3 mps 744 mmHg 46%
    15:00 +26°C° 0 mm 2 mps 743 mmHg 50%
    16:00 +25°C° 0 mm 2 mps 743 mmHg 53%
    17:00 +25°C° 0 mm 2 mps 743 mmHg 57%
    18:00 +23°C° 0 mm 2 mps 743 mmHg 65%
    19:00 +20°C° 0 mm 2 mps 743 mmHg 73%
    20:00 +18°C° 0 mm 2 mps 743 mmHg 80%
    21:00 +17°C° 0 mm 2 mps 743 mmHg 83%
    22:00 +17°C° 0 mm 2 mps 743 mmHg 85%
    23:00 +16°C° 0 mm 2 mps 743 mmHg 88%

    Day after tomorrow, 19 August, Sunday

    Time Temperature Precipitation Wind Pressure Humidity
    00:00 +16°C° 0 mm 2 mps 742 mmHg 89%
    01:00 +15°C° 0 mm 2 mps 742 mmHg 89%
    02:00 +15°C° 0 mm 2 mps 742 mmHg 90%
    03:00 +15°C° 0 mm 2 mps 742 mmHg 89%
    04:00 +14°C° 0 mm 3 mps 742 mmHg 88%
    05:00 +14°C° 0 mm 3 mps 742 mmHg 87%
    06:00 +17°C° 0 mm 3 mps 741 mmHg 83%
    07:00 +18°C° 0 mm 3 mps 741 mmHg 80%
    08:00 +19°C° 0 mm 3 mps 741 mmHg 76%
    09:00 +21°C° 0 mm 4 mps 741 mmHg 71%
    10:00 +23°C° 0 mm 4 mps 741 mmHg 66%
    11:00 +25°C° 0 mm 4 mps 741 mmHg 61%
    12:00 +25°C° 0.6 mm 4 mps 740 mmHg 66%
    13:00 +25°C° 0.6 mm 4 mps 740 mmHg 70%
    14:00 +25°C° 0.6 mm 4 mps 740 mmHg 75%
    15:00 +24°C° 0.6 mm 3 mps 740 mmHg 78%
    16:00 +24°C° 0.6 mm 3 mps 739 mmHg 82%
    17:00 +22°C° 0.6 mm 3 mps 739 mmHg 85%
    18:00 +21°C° 0.2 mm 2 mps 739 mmHg 88%
    19:00 +19°C° 0.2 mm 2 mps 739 mmHg 91%
    20:00 +18°C° 0.2 mm 2 mps 739 mmHg 93%
    21:00 +18°C° 0 mm 1 mps 739 mmHg 93%
    22:00 +18°C° 0 mm 1 mps 739 mmHg 92%
    23:00 +16°C° 0 mm 1 mps 739 mmHg 91%

    20 August, Monday

    Time Temperature Precipitation Wind Pressure Humidity
    00:00 +16°C° 0.1 mm 1 mps 739 mmHg 92%
    01:00 +15°C° 0.1 mm 1 mps 739 mmHg 93%
    02:00 +15°C° 0.1 mm 1 mps 739 mmHg 93%
    03:00 +15°C° 0.1 mm 1 mps 739 mmHg 94%
    04:00 +15°C° 0.1 mm 1 mps 739 mmHg 95%
    05:00 +15°C° 0.1 mm 1 mps 739 mmHg 96%
    06:00 +16°C° 0.1 mm 1 mps 739 mmHg 95%
    07:00 +16°C° 0.1 mm 1 mps 739 mmHg 94%
    08:00 +18°C° 0.1 mm 1 mps 739 mmHg 93%
    09:00 +18°C° 0.3 mm 2 mps 739 mmHg 91%
    10:00 +19°C° 0.3 mm 2 mps 739 mmHg 88%
    11:00 +20°C° 0.3 mm 3 mps 739 mmHg 86%
    12:00 +20°C° 0.4 mm 3 mps 739 mmHg 82%
    13:00 +21°C° 0.4 mm 3 mps 739 mmHg 78%
    14:00 +21°C° 0.4 mm 3 mps 739 mmHg 73%
    15:00 +21°C° 0.1 mm 3 mps 739 mmHg 71%
    16:00 +21°C° 0.1 mm 3 mps 739 mmHg 69%
    17:00 +21°C° 0.1 mm 2 mps 739 mmHg 67%
    18:00 +20°C° 0 mm 2 mps 739 mmHg 73%
    19:00 +19°C° 0 mm 1 mps 739 mmHg 80%
    20:00 +16°C° 0 mm 1 mps 739 mmHg 86%
    21:00 +16°C° 0 mm 1 mps 739 mmHg 86%
    22:00 +15°C° 0 mm 0 mps 740 mmHg 86%
    23:00 +15°C° 0 mm 0 mps 740 mmHg 85%

    21 August, Tuesday

    Time Temperature Precipitation Wind Pressure Humidity
    00:00 +15°C° 0.1 mm 0 mps 740 mmHg 87%
    01:00 +15°C° 0.1 mm 0 mps 740 mmHg 88%
    02:00 +15°C° 0.1 mm 0 mps 740 mmHg 90%
    03:00 +14°C° 0 mm 0 mps 740 mmHg 91%
    04:00 +15°C° 0 mm 1 mps 740 mmHg 92%
    05:00 +15°C° 0 mm 1 mps 740 mmHg 93%
    06:00 +16°C° 0.1 mm 1 mps 740 mmHg 92%
    07:00 +18°C° 0.1 mm 1 mps 740 mmHg 90%
    08:00 +19°C° 0.1 mm 1 mps 740 mmHg 88%
    09:00 +20°C° 0.1 mm 1 mps 740 mmHg 83%
    10:00 +20°C° 0.1 mm 2 mps 740 mmHg 77%
    11:00 +21°C° 0.1 mm 2 mps 740 mmHg 72%
    12:00 +21°C° 0 mm 3 mps 739 mmHg 66%
    13:00 +22°C° 0 mm 3 mps 739 mmHg 61%
    14:00 +24°C° 0 mm 3 mps 739 mmHg 55%
    15:00 +22°C° 0 mm 3 mps 739 mmHg 59%
    16:00 +23°C° 0 mm 2 mps 738 mmHg 63%
    17:00 +23°C° 0 mm 2 mps 738 mmHg 68%
    18:00 +20°C° 0.6 mm 2 mps 738 mmHg 76%
    19:00 +19°C° 0.6 mm 2 mps 738 mmHg 85%
    20:00 +17°C° 0.6 mm 2 mps 737 mmHg 94%
    21:00 +17°C° 0.7 mm 2 mps 737 mmHg 95%
    22:00 +17°C° 0.7 mm 2 mps 737 mmHg 96%
    23:00 +17°C° 0.7 mm 2 mps 736 mmHg 97%

    22 August, Wednesday

    Time Temperature Precipitation Wind Pressure Humidity
    00:00 +17°C° 0.1 mm 2 mps 736 mmHg 97%
    01:00 +17°C° 0.1 mm 2 mps 736 mmHg 97%
    02:00 +16°C° 0.1 mm 2 mps 736 mmHg 97%
    03:00 +16°C° 0 mm 2 mps 736 mmHg 98%
    04:00 +16°C° 0 mm 2 mps 736 mmHg 98%
    05:00 +16°C° 0 mm 2 mps 736 mmHg 98%
    06:00 +16°C° 0 mm 2 mps 736 mmHg 97%
    07:00 +17°C° 0 mm 3 mps 736 mmHg 96%
    08:00 +17°C° 0 mm 3 mps 736 mmHg 96%
    09:00 +17°C° 0.1 mm 3 mps 736 mmHg 94%
    10:00 +17°C° 0.1 mm 3 mps 736 mmHg 92%
    11:00 +18°C° 0.1 mm 3 mps 737 mmHg 90%
    12:00 +19°C° 0 mm 3 mps 737 mmHg 80%
    13:00 +21°C° 0 mm 3 mps 737 mmHg 71%
    14:00 +22°C° 0 mm 3 mps 737 mmHg 62%
    15:00 +22°C° 0 mm 3 mps 737 mmHg 63%
    16:00 +22°C° 0 mm 3 mps 736 mmHg 64%
    17:00 +22°C° 0 mm 3 mps 736 mmHg 66%
    18:00 +20°C° 0 mm 2 mps 736 mmHg 73%
    19:00 +19°C° 0 mm 2 mps 736 mmHg 81%
    20:00 +17°C° 0 mm 2 mps 736 mmHg 89%
    21:00 +17°C° 0.1 mm 2 mps 736 mmHg 89%
    22:00 +17°C° 0.1 mm 3 mps 736 mmHg 90%
    23:00 +17°C° 0.1 mm 3 mps 736 mmHg 91%
    Show more